Showing default

FLOCK 4G 17, 62681

Orbit data source: Space-Track

FLOCK 4G 17, 62681 is a payload satellite owned by Planet (US) in SSO that was launched on Tue, 14 Jan 2025 UTC via an FALCON 9 launch vehicle from the Air Force Western Test Range (AFWTR). Payload-class satellites include a variety of spacecraft equipped with specific instruments for various scientific and technological missions. These include communications satellites like Starlink; space stations such as the ISS; scientific satellites like the Hubble; Earth observation satellites from companies like Planet Labs, Umbra, and HawkEye 360; GPS; miniature CubeSats for education and research; and military/defense satellites.

Loading next visibility...
Identifier
62681, 2025-009CA
Orbit
SSO
Country
Flag of USUS
Related business
Manufacturer
Planet
Mission
Operational Commercial Imaging
Bus & Motor
CUBESAT 3U, Unknown motor
Mass
5.7 kg wet, 5.7 kg dry
Launch date (UTC)
2025-01-14 (9 months ago)
Launch vehicle
FALCON 9
Launch site
Air Force Western Test Range (AFWTR)
Object type
Payload
Rocket body
Debris
Shape & HBR
Box + 2 Pan, 1.0 m
Radar Cross Section
0.072 m², Medium (>0.1 m² and < 1m²)

Expand to show TLE details & history
Last TLE update: 1 day ago

TLE from 1 day ago
0 FLOCK 4G 17
1 62681U 25009CA  25300.21410205  .00012433  00000-0  52119-3 0  9998
2 62681  97.4144  18.5831 0006332  84.2031 275.9928 15.23632837101006
Epoch: 2025-10-27T05:08Z
TLE epoch observation values (Epoch: 2025-10-27T05:08:18.417Z)
Latitude
0.00002°
Longitude
-94.3128°
Altitude
497.537 km
Speed
7.616 km/s
True Right ascension
01h 14m 19s
True Declination
0° 00' 00"
Sunlit
Object was in full shadow at epoch
Visualization orbit readout
Latitude
Unknown
Longitude
Unknown
Altitude
Unknown
Speed
Unknown
Apparent Right ascension
Unknown
Apparent Declination
Unknown
Sunlit
N/A
Visualization observer readout
Local Sidereal Time
06:30:11
Azimuth
Unknown
Elevation
Unknown
Doppler factor
Unknown
Orbital elements
Apogee altitude
496.205 km
Perigee altitude
487.505 km
Semi-major axis
6,869.992 km
Eccentricity
0.00063
Inclination
97.4144°
RAAN
18.5831°
Arg. of periapsis
84.2031°
True anomaly
275.92063°
Mean anomaly
275.9928°
Eccentric anomaly
275.95672°
Mean motion
3.81161 °/min
Orbital period
94.45 mins
BSTAR
0.00052119
Loading maneuver chart data...
Computing Atmospheric mass density...
Loading historical data...
Loading historical data...
Loading historical data...
Loading historical data...
Loading historical data...
Loading historical data...
Loading historical data...

Documentation

Showing up to 5 results
|